パンスターズ彗星

C/2014 Y1 ( PanSTARRS )

English version
Home page
Updated on March 25, 2017

---------------------------------------------------------------------

・ プロフィール

発見日 2014年12月16日
発見光度 19.9等
発見者 Pan-STARRS 1 telescope (Haleakala)

・ 写真集

・ 軌道要素

Epoch 2016 Jan. 13.0 TT = JDT 2457400.5
T 2016 Jan. 17.58504 TT                                 MPCW
q   2.2420624            (2000.0)            P               Q
z  -0.0008148      Peri.  182.26278     -0.92935269     +0.35906744
 +/-0.0000015      Node    19.47192     -0.33455369     -0.72069338
e   1.0018268      Incl.   14.92829     -0.15613269     -0.59301908
From 269 observations 2014 Nov. 17-2016 Apr. 21, mean residual 0".5.

・ 星図

・ 光度変化

        m1 = 10.3 + 5 logΔ + 10.0 log r(t + 100)

        ※ 灰色の曲線は、m1 = 8.5 + 5 logΔ + 10.0 log r の光度曲線です。

---------------------------------------------------------------------

軌道要素はM.P.E.C. 2016-M09に掲載されたものです。
星図はステラナビゲータ Ver.8 (アストロアーツ) で作成したものです。
光度グラフはComet for Windowsで作成したものです。

---------------------------------------------------------------------

Copyright(C) Seiichi Yoshida (comet@aerith.net). All rights reserved.